This is the latest recevied weather packets stored in our database for station/object K7TUS-6. If no packets are shown the sender has not sent any weather packets the latest 10 day(s).
| Time | Temp. | Humidity | Pressure | Rain* | Wind** | Luminosity | Snow |
|---|---|---|---|---|---|---|---|
| 1778164808 | 13.33° C | 1% | 985.2 hPa | - | - | - | - |
| 1778164507 | 13.89° C | 1% | 984.3 hPa | - | - | - | - |
| 1778164207 | 13.89° C | 1% | 984.6 hPa | - | - | - | - |
| 1778163906 | 13.89° C | 1% | 985.5 hPa | - | - | - | - |
| 1778163606 | 13.89° C | 1% | 984.5 hPa | - | - | - | - |
| 1778163005 | 13.89° C | 1% | 985.1 hPa | - | - | - | - |
| 1778162704 | 13.89° C | 1% | 985.1 hPa | - | - | - | - |
| 1778162104 | 13.33° C | 1% | 984.3 hPa | - | - | - | - |
| 1778161803 | 13.33° C | 1% | 984.7 hPa | - | - | - | - |
| 1778161503 | 12.78° C | 1% | 984.2 hPa | - | - | - | - |
| 1778161208 | 12.78° C | 1% | 985.5 hPa | - | - | - | - |
| 1778160908 | 12.78° C | 1% | 984.1 hPa | - | - | - | - |
| 1778160607 | 12.78° C | 1% | 983.5 hPa | - | - | - | - |
| 1778160306 | 12.78° C | 1% | 983.7 hPa | - | - | - | - |
| 1778160005 | 12.78° C | 1% | 984.1 hPa | - | - | - | - |
| 1778159705 | 12.78° C | 1% | 985 hPa | - | - | - | - |
| 1778159404 | 12.78° C | 1% | 983.6 hPa | - | - | - | - |
| 1778158804 | 11.67° C | 1% | 983.1 hPa | - | - | - | - |
| 1778158503 | 11.67° C | 1% | 984 hPa | - | - | - | - |
| 1778158208 | 11.11° C | 1% | 983.9 hPa | - | - | - | - |
| 1778157908 | 11.11° C | 1% | 983.9 hPa | - | - | - | - |
| 1778157607 | 11.11° C | 1% | 984.3 hPa | - | - | - | - |
| 1778157331 | 11.11° C | 1% | 984 hPa | - | - | - | - |
| 1778156706 | 10.56° C | 1% | 983.8 hPa | - | - | - | - |
| 1778156105 | 10.56° C | 1% | 984 hPa | - | - | - | - |
* Rain since midnight (hover to see other rain measurements)
** Current wind speed in m/s (hover to see current wind gust speed)